Regional Weather Roundup
Issued by NWS

Home | Current Version | Previous Version | Text Only | Print | Product List | Glossary On
Versions: 1 2 3 4 5 6 7 8 9 10 11 12 13 14 15 16 17 18 19 20 21 22 23 24 25 26 27 28 29 30 31 32 33 34 35 36 37 38 39 40 41 42 43 44 45 46 47 48 49 50
000
ASUS43 KLSX 031107
RWRMO

WEATHER SUMMARY FOR MISSOURI
NATIONAL WEATHER SERVICE SPRINGFIELD MO
600 AM CDT SUN MAY 03 2015

NOTE: "FAIR" INDICATES FEW OR NO CLOUDS BELOW 12,000 FEET WITH NO
       SIGNIFICANT WEATHER AND/OR OBSTRUCTIONS TO VISIBILITY.
       CURRENT SKY AND/OR WEATHER CONDITIONS ARE NOT AVAILABLE FOR
       CHILLICOTHE AND FARMINGTON.

MOZ001>031-035>038-043-044-053-054-031200-
...NORTHERN AND WESTERN MISSOURI...

CITY           SKY/WX    TMP DP  RH WIND       PRES   REMARKS
KANSAS CTY INT CLOUDY    64  53  67 S21       29.85F
KANSAS C DTWN  CLOUDY    65  52  62 S12       29.88S
LEE`S SUMMIT   CLOUDY    62  51  67 S9        29.91S
ST JOSEPH      CLOUDY    62  54  74 SE6       29.84F
CHILLICOTHE      N/A     63  52  67 S9        29.90R
KIRKSVILLE     MOCLDY    57  51  80 S7        29.92R

$$
MOZ066>068-077>081-088>096-101>105-031200-
...SOUTHWEST MISSOURI...

CITY           SKY/WX    TMP DP  RH WIND       PRES   REMARKS
SPRINGFIELD    MOCLDY    57  49  74 SE12      29.97S
JOPLIN         CLEAR     60  51  72 S12       29.95S

$$
MOZ032>034-039>042-045>050-055>058-069>072-031200-
...CENTRAL MISSOURI...

CITY           SKY/WX    TMP DP  RH WIND       PRES   REMARKS
COLUMBIA       MOCLDY    57  47  69 S9        29.96R
JEFFERSON CITY CLOUDY    60  46  59 E5        29.96S
ROLLA          CLOUDY    60  45  57 S12       29.98S
SEDALIA        CLOUDY    61  50  67 S9        29.95R
WHITEMAN AFB   CLOUDY    56  51  84 S6        29.93R
WARRENSBURG    CLOUDY    59  50  72 S7        29.93R
OSAGE BEACH    CLOUDY    57  45  62 S6        29.97S

$$
MOZ051-052-059>065-031200-
...EAST CENTRAL MISSOURI...

CITY           SKY/WX    TMP DP  RH WIND       PRES   REMARKS
ST LOUIS INTL  MOCLDY    64  42  44 S7        29.99F
SPIRIT OF STL  PTCLDY    59  45  59 CALM      29.98S
ST CHARLES     PTCLDY    57  49  74 E7        29.98S

$$
MOZ072>076-082>087-097>100-106>115-031200-
...SOUTH CENTRAL AND SOUTHEAST MISSOURI...

CITY           SKY/WX    TMP DP  RH WIND       PRES   REMARKS
CAPE GIRARDEAU FAIR      53  49  86 E5        30.05S
FARMINGTON     PTCLDY    55  43  62 S7        30.06S
POPLAR BLUFF   CLOUDY    55  51  86 CALM      30.03S
WEST PLAINS    MOCLDY    58  41  53 S6        30.03S

$$



USA.gov is the U.S. government's official web portal to all federal, state and local government web resources and services.